Regional Weather Roundup
Issued by NWS

Home | Current Version | Previous Version | Text Only | Print | Product List | Glossary Off
Versions: 1 2 3 4 5 6 7 8 9 10 11 12 13 14 15 16 17 18 19 20 21 22 23 24 25 26 27 28 29 30 31 32 33 34 35 36 37 38 39 40 41 42 43 44 45 46 47 48 49 50

000
ASUS45 KPSR 301910
RWRAZ

ARIZONA REGIONAL HOURLY WEATHER ROUNDUP
NATIONAL WEATHER SERVICE PHOENIX AZ
1200 PM MST TUE SEP 30 2014

NOTE: FAIR INDICATES FEW OR NO CLOUDS BELOW 12,000 FEET WITH NO
SIGNIFICANT WEATHER AND/OR OBSTRUCTIONS TO VISIBILITY.

AZZ001>003-036-302000-
NORTHWEST ARIZONA

CITY           SKY/WX    TMP DP  RH WIND       PRES   REMARKS
BULLHEAD CITY  SUNNY     86  39  19 SW5       29.85F
KINGMAN        SUNNY     78  39  24 NE6       29.97F
$$

AZZ004>008-015-016-018-302000-
NORTH CENTRAL ARIZONA

CITY           SKY/WX    TMP DP  RH WIND       PRES   REMARKS
GRAND CANYON   SUNNY     63  35  35 W9G18     30.10F
PRESCOTT       SUNNY     70  38  31 N6        30.03F
FLAGSTAFF      SUNNY     62  33  33 W8        30.11F
PAYSON         SUNNY     70  37  30 VRB6G12   30.06S
$$

AZZ009>014-017-302000-
NORTHEAST ARIZONA

CITY           SKY/WX    TMP DP  RH WIND       PRES   REMARKS
WINSLOW        SUNNY     71  39  31 VRB3      30.02F
SAINT JOHNS    SUNNY     67  35  30 VRB3      30.04F
WINDOW ROCK    SUNNY     65  32  29 W10       30.08S
SHOW LOW       SUNNY     64  28  25 S6        30.10S
$$

AZZ023-302000-
GREATER PHOENIX AREA

CITY           SKY/WX    TMP DP  RH WIND       PRES   REMARKS
PHOENIX        MOSUNNY   83  45  26 CALM      29.84F
BUCKEYE          N/A     81  50  34 S6        29.86S
GLENDALE       MOSUNNY   81  46  30 CALM      29.87F
LUKE AFB       SUNNY     82  48  31 VRB1      29.84F
DEER VALLEY    SUNNY     80  42  25 CALM      29.86F
SCOTTSDALE     SUNNY     82  42  24 VRB3      29.88F
MESA-GATEWAY   SUNNY     81  43  26 NE5       29.88F
CHANDLER       SUNNY     81  45  28 CALM      29.86F
$$

AZZ027-028-302000-
SOUTHWEST MARICOPA COUNTY AND PINAL COUNTY

CITY           SKY/WX    TMP DP  RH WIND       PRES   REMARKS
CASA GRANDE    SUNNY     82  41  23 CALM      29.87F
GILA BEND      CLEAR     86  41  20 VRB3      29.90R
$$

AZZ503-504-507>509-302000-
SOUTHEAST ARIZONA

CITY           SKY/WX    TMP DP  RH WIND       PRES   REMARKS
TUCSON         SUNNY     83  34  17 CALM      29.92F
DAVIS-MONTHAN  SUNNY     81  37  20 SW3       29.90F
RYAN FIELD       N/A     84  32  15 W6        29.91F
NOGALES        SUNNY     80  46  30 W7        29.97F
SIERRA VISTA   MOSUNNY   77  46  33 CALM      30.00F
DOUGLAS        SUNNY     78  52  40 VRB5      29.97F
SAFFORD        SUNNY     79  33  19 CALM      29.91F
$$

AZZ020-021-025-026-031-302000-
SOUTHWEST ARIZONA

CITY           SKY/WX    TMP DP  RH WIND       PRES   REMARKS
YUMA           MOSUNNY   91  37  15 CALM      29.81F
$$

CAZ031-033-041-043-047-048-061-302000-
SOUTHERN CALIFORNIA

CITY           SKY/WX    TMP DP  RH WIND       PRES   REMARKS
DOWNTOWN L.A.  SUNNY     83  56  39 CALM      29.84F
L.A. AIRPORT   SUNNY     76  59  55 W8        29.86F
SAN DIEGO      SUNNY     77  60  55 NW8       29.86F
BURBANK        SUNNY     82  47  29 SE6       29.85F
ONTARIO        MOSUNNY   84  47  27 CALM      29.86F
RIVERSIDE      SUNNY     85  44  23 W5        29.86F
PALM SPRINGS   SUNNY     91  37  15 VRB7      29.83F
EL CENTRO NAS  SUNNY     92  39  15 CALM      29.80F
IMPERIAL       SUNNY     91  43  18 N7        29.79F
BLYTHE         SUNNY     88  43  20 NE5       29.83F
NEEDLES        SUNNY     86  37  17 CALM      29.85F
$$

NVZ020-UTZ003-302000-
SOUTHERN NEVADA-UTAH

CITY           SKY/WX    TMP DP  RH WIND       PRES   REMARKS
LAS VEGAS      MOSUNNY   80  38  22 VRB5      29.87F
SALT LAKE CITY LGT RAIN  61  41  47 CALM      29.96F
$$

NMZ009-TXZ055-302000-
NEW MEXICO-WEST TEXAS

CITY           SKY/WX    TMP DP  RH WIND       PRES   REMARKS
ALBUQUERQUE    SUNNY     68  31  25 CALM      30.00F
EL PASO        MOSUNNY   83  50  31 SW16G24   29.92F
$$


........................KEY........................
SKY/WX - SKY CONDITION/WEATHER
TMP    - TEMPERATURE IN FAHRENHEIT
DP     - DEW POINT IN FAHRENHEIT
RH     - RELATIVE HUMIDITY IN PERCENT
WIND   - DIRECTION AND SPEED IN MILES PER HOUR (MPH)
VRB    - VARIABLE WIND DIRECTION
PRES   - MEAN SEA LEVEL PRESSURE IN INCHES OF MERCURY
         F - FALLING PRESSURE   R - RISING PRESSURE
         S - STEADY PRESSURE
VSB    - VISIBILITY IN MILES
HX     - HEAT INDEX IN FAHRENHEIT
WCI    - WIND CHILL INDEX IN FAHRENHEIT
TC     - TEMPERATURE IN CELSIUS WHICH IS ALSO KNOWN AS
         TEMPERATURE IN CENTIGRADE
AFB    - AIR FORCE BASE
         LUKE AFB IS LUKE AIR FORCE BASE
         DAVIS-MONTHAN IS DAVIS-MONTHAN AIR FORCE BASE
NAS    - NAVAL AIR STATION
         EL CENTRO NAS IS EL CENTRO NAVAL AIR STATION
N/A    - NOT AVAILABLE


USA.gov is the U.S. government's official web portal to all federal, state and local government web resources and services.